﻿測定場所 (Monitoring sites),日付 (Measurement date),時間 (Measurement time),線量率 最大値 (max) μGy/h,線量率 最小値 (min) μGy/h,線量率 平均値 (average) μGy/h,
小平 (Kodaira),2015-04-12,23:01～24:00,0.0334,0.0290,0.0314,
小平 (Kodaira),2015-04-12,22:01～23:00,0.0337,0.0290,0.0315,
小平 (Kodaira),2015-04-12,21:01～22:00,0.0330,0.0293,0.0312,
小平 (Kodaira),2015-04-12,20:01～21:00,0.0328,0.0294,0.0315,
小平 (Kodaira),2015-04-12,19:01～20:00,0.0332,0.0297,0.0313,
小平 (Kodaira),2015-04-12,18:01～19:00,0.0333,0.0295,0.0313,
小平 (Kodaira),2015-04-12,17:01～18:00,0.0341,0.0299,0.0316,
小平 (Kodaira),2015-04-12,16:01～17:00,0.0333,0.0288,0.0316,
小平 (Kodaira),2015-04-12,15:01～16:00,0.0336,0.0304,0.0318,
小平 (Kodaira),2015-04-12,14:01～15:00,0.0335,0.0297,0.0318,
小平 (Kodaira),2015-04-12,13:01～14:00,0.0341,0.0286,0.0315,
小平 (Kodaira),2015-04-12,12:01～13:00,0.0343,0.0295,0.0319,
小平 (Kodaira),2015-04-12,11:01～12:00,0.0332,0.0300,0.0315,
小平 (Kodaira),2015-04-12,10:01～11:00,0.0345,0.0300,0.0320,
小平 (Kodaira),2015-04-12,09:01～10:00,0.0340,0.0302,0.0319,
小平 (Kodaira),2015-04-12,08:01～09:00,0.0341,0.0300,0.0325,
小平 (Kodaira),2015-04-12,07:01～08:00,0.0345,0.0299,0.0320,
小平 (Kodaira),2015-04-12,06:01～07:00,0.0349,0.0297,0.0319,
小平 (Kodaira),2015-04-12,05:01～06:00,0.0343,0.0303,0.0322,
小平 (Kodaira),2015-04-12,04:01～05:00,0.0348,0.0299,0.0319,
小平 (Kodaira),2015-04-12,03:01～04:00,0.0333,0.0294,0.0313,
小平 (Kodaira),2015-04-12,02:01～03:00,0.0338,0.0290,0.0313,
小平 (Kodaira),2015-04-12,01:01～02:00,0.0336,0.0290,0.0309,
小平 (Kodaira),2015-04-12,00:01～01:00,0.0336,0.0291,0.0312,
小平 (Kodaira),2015-04-11,23:01～24:00,0.0331,0.0293,0.0312,
小平 (Kodaira),2015-04-11,22:01～23:00,0.0345,0.0297,0.0319,
小平 (Kodaira),2015-04-11,21:01～22:00,0.0361,0.0312,0.0336,
小平 (Kodaira),2015-04-11,20:01～21:00,0.0368,0.0307,0.0334,
小平 (Kodaira),2015-04-11,19:01～20:00,0.0356,0.0311,0.0335,
小平 (Kodaira),2015-04-11,18:01～19:00,0.0363,0.0311,0.0345,
小平 (Kodaira),2015-04-11,17:01～18:00,0.0333,0.0288,0.0315,
小平 (Kodaira),2015-04-11,16:01～17:00,0.0341,0.0289,0.0311,
小平 (Kodaira),2015-04-11,15:01～16:00,0.0331,0.0298,0.0315,
小平 (Kodaira),2015-04-11,14:01～15:00,0.0331,0.0293,0.0314,
小平 (Kodaira),2015-04-11,13:01～14:00,0.0336,0.0286,0.0316,
小平 (Kodaira),2015-04-11,12:01～13:00,0.0348,0.0306,0.0326,
小平 (Kodaira),2015-04-11,11:01～12:00,0.0360,0.0316,0.0340,
小平 (Kodaira),2015-04-11,10:01～11:00,0.0374,0.0326,0.0350,
小平 (Kodaira),2015-04-11,09:01～10:00,0.0383,0.0325,0.0354,
小平 (Kodaira),2015-04-11,08:01～09:00,0.0369,0.0332,0.0353,
小平 (Kodaira),2015-04-11,07:01～08:00,0.0394,0.0349,0.0367,
小平 (Kodaira),2015-04-11,06:01～07:00,0.0372,0.0334,0.0356,
小平 (Kodaira),2015-04-11,05:01～06:00,0.0374,0.0326,0.0346,
小平 (Kodaira),2015-04-11,04:01～05:00,0.0365,0.0319,0.0340,
小平 (Kodaira),2015-04-11,03:01～04:00,0.0361,0.0320,0.0340,
小平 (Kodaira),2015-04-11,02:01～03:00,0.0372,0.0334,0.0349,
小平 (Kodaira),2015-04-11,01:01～02:00,0.0380,0.0340,0.0361,
小平 (Kodaira),2015-04-11,00:01～01:00,0.0393,0.0346,0.0364,
小平 (Kodaira),2015-04-10,23:01～24:00,0.0398,0.0342,0.0365,
小平 (Kodaira),2015-04-10,22:01～23:00,0.0398,0.0334,0.0365,
小平 (Kodaira),2015-04-10,21:01～22:00,0.0395,0.0348,0.0365,
小平 (Kodaira),2015-04-10,20:01～21:00,0.0401,0.0340,0.0368,
小平 (Kodaira),2015-04-10,19:01～20:00,0.0437,0.0366,0.0392,
小平 (Kodaira),2015-04-10,18:01～19:00,0.0432,0.0365,0.0391,
小平 (Kodaira),2015-04-10,17:01～18:00,0.0411,0.0349,0.0375,
小平 (Kodaira),2015-04-10,16:01～17:00,0.0373,0.0330,0.0355,
小平 (Kodaira),2015-04-10,15:01～16:00,0.0361,0.0306,0.0329,
小平 (Kodaira),2015-04-10,14:01～15:00,0.0357,0.0305,0.0323,
小平 (Kodaira),2015-04-10,13:01～14:00,0.0341,0.0306,0.0326,
小平 (Kodaira),2015-04-10,12:01～13:00,0.0344,0.0305,0.0326,
小平 (Kodaira),2015-04-10,11:01～12:00,0.0345,0.0302,0.0324,
小平 (Kodaira),2015-04-10,10:01～11:00,0.0352,0.0312,0.0331,
小平 (Kodaira),2015-04-10,09:01～10:00,0.0348,0.0314,0.0331,
小平 (Kodaira),2015-04-10,08:01～09:00,0.0357,0.0316,0.0333,
小平 (Kodaira),2015-04-10,07:01～08:00,0.0354,0.0314,0.0333,
小平 (Kodaira),2015-04-10,06:01～07:00,0.0361,0.0317,0.0337,
小平 (Kodaira),2015-04-10,05:01～06:00,0.0362,0.0317,0.0337,
小平 (Kodaira),2015-04-10,04:01～05:00,0.0352,0.0311,0.0332,
小平 (Kodaira),2015-04-10,03:01～04:00,0.0352,0.0316,0.0336,
小平 (Kodaira),2015-04-10,02:01～03:00,0.0356,0.0303,0.0334,
小平 (Kodaira),2015-04-10,01:01～02:00,0.0346,0.0297,0.0323,
小平 (Kodaira),2015-04-10,00:01～01:00,0.0339,0.0292,0.0317,
小平 (Kodaira),2015-04-09,23:01～24:00,0.0338,0.0303,0.0320,
小平 (Kodaira),2015-04-09,22:01～23:00,0.0349,0.0305,0.0328,
小平 (Kodaira),2015-04-09,21:01～22:00,0.0346,0.0308,0.0325,
小平 (Kodaira),2015-04-09,20:01～21:00,0.0348,0.0307,0.0324,
小平 (Kodaira),2015-04-09,19:01～20:00,0.0339,0.0304,0.0322,
小平 (Kodaira),2015-04-09,18:01～19:00,0.0344,0.0299,0.0322,
小平 (Kodaira),2015-04-09,17:01～18:00,0.0334,0.0299,0.0319,
小平 (Kodaira),2015-04-09,16:01～17:00,0.0354,0.0298,0.0317,
小平 (Kodaira),2015-04-09,15:01～16:00,0.0338,0.0299,0.0318,
小平 (Kodaira),2015-04-09,14:01～15:00,0.0346,0.0299,0.0317,
小平 (Kodaira),2015-04-09,13:01～14:00,0.0337,0.0295,0.0318,
小平 (Kodaira),2015-04-09,12:01～13:00,0.0339,0.0302,0.0320,
小平 (Kodaira),2015-04-09,11:01～12:00,0.0341,0.0302,0.0319,
小平 (Kodaira),2015-04-09,10:01～11:00,0.0336,0.0299,0.0319,
小平 (Kodaira),2015-04-09,09:01～10:00,0.0339,0.0303,0.0320,
小平 (Kodaira),2015-04-09,08:01～09:00,0.0340,0.0299,0.0318,
小平 (Kodaira),2015-04-09,07:01～08:00,0.0342,0.0298,0.0317,
小平 (Kodaira),2015-04-09,06:01～07:00,0.0333,0.0298,0.0318,
小平 (Kodaira),2015-04-09,05:01～06:00,0.0340,0.0296,0.0316,
小平 (Kodaira),2015-04-09,04:01～05:00,0.0339,0.0304,0.0317,
小平 (Kodaira),2015-04-09,03:01～04:00,0.0334,0.0293,0.0315,
小平 (Kodaira),2015-04-09,02:01～03:00,0.0342,0.0299,0.0320,
小平 (Kodaira),2015-04-09,01:01～02:00,0.0340,0.0299,0.0316,
小平 (Kodaira),2015-04-09,00:01～01:00,0.0331,0.0293,0.0314,
小平 (Kodaira),2015-04-08,23:01～24:00,0.0336,0.0295,0.0314,
小平 (Kodaira),2015-04-08,22:01～23:00,0.0334,0.0298,0.0314,
小平 (Kodaira),2015-04-08,21:01～22:00,0.0334,0.0298,0.0313,
小平 (Kodaira),2015-04-08,20:01～21:00,0.0333,0.0294,0.0312,
小平 (Kodaira),2015-04-08,19:01～20:00,0.0333,0.0296,0.0316,
小平 (Kodaira),2015-04-08,18:01～19:00,0.0349,0.0298,0.0324,
小平 (Kodaira),2015-04-08,17:01～18:00,0.0369,0.0329,0.0348,
小平 (Kodaira),2015-04-08,16:01～17:00,0.0407,0.0357,0.0379,
小平 (Kodaira),2015-04-08,15:01～16:00,0.0421,0.0363,0.0380,
小平 (Kodaira),2015-04-08,14:01～15:00,0.0404,0.0349,0.0378,
小平 (Kodaira),2015-04-08,13:01～14:00,0.0418,0.0359,0.0382,
小平 (Kodaira),2015-04-08,12:01～13:00,0.0443,0.0364,0.0400,
小平 (Kodaira),2015-04-08,11:01～12:00,0.0455,0.0382,0.0412,
小平 (Kodaira),2015-04-08,10:01～11:00,0.0467,0.0390,0.0423,
小平 (Kodaira),2015-04-08,09:01～10:00,0.0491,0.0402,0.0445,
小平 (Kodaira),2015-04-08,08:01～09:00,0.0527,0.0426,0.0480,
小平 (Kodaira),2015-04-08,07:01～08:00,0.0556,0.0481,0.0510,
小平 (Kodaira),2015-04-08,06:01～07:00,0.0524,0.0450,0.0486,
小平 (Kodaira),2015-04-08,05:01～06:00,0.0536,0.0444,0.0485,
小平 (Kodaira),2015-04-08,04:01～05:00,0.0519,0.0449,0.0482,
小平 (Kodaira),2015-04-08,03:01～04:00,0.0525,0.0326,0.0421,
小平 (Kodaira),2015-04-08,02:01～03:00,0.0371,0.0326,0.0345,
小平 (Kodaira),2015-04-08,01:01～02:00,0.0363,0.0324,0.0342,
小平 (Kodaira),2015-04-08,00:01～01:00,0.0372,0.0319,0.0353,
小平 (Kodaira),2015-04-07,23:01～24:00,0.0437,0.0357,0.0399,
小平 (Kodaira),2015-04-07,22:01～23:00,0.0440,0.0356,0.0391,
小平 (Kodaira),2015-04-07,21:01～22:00,0.0387,0.0322,0.0355,
小平 (Kodaira),2015-04-07,20:01～21:00,0.0382,0.0327,0.0354,
小平 (Kodaira),2015-04-07,19:01～20:00,0.0386,0.0312,0.0352,
小平 (Kodaira),2015-04-07,18:01～19:00,0.0366,0.0319,0.0347,
小平 (Kodaira),2015-04-07,17:01～18:00,0.0409,0.0340,0.0366,
小平 (Kodaira),2015-04-07,16:01～17:00,0.0395,0.0349,0.0367,
小平 (Kodaira),2015-04-07,15:01～16:00,0.0389,0.0342,0.0361,
小平 (Kodaira),2015-04-07,14:01～15:00,0.0410,0.0346,0.0379,
小平 (Kodaira),2015-04-07,13:01～14:00,0.0443,0.0363,0.0403,
小平 (Kodaira),2015-04-07,12:01～13:00,0.0465,0.0407,0.0436,
小平 (Kodaira),2015-04-07,11:01～12:00,0.0469,0.0368,0.0417,
小平 (Kodaira),2015-04-07,10:01～11:00,0.0441,0.0367,0.0395,
小平 (Kodaira),2015-04-07,09:01～10:00,0.0419,0.0356,0.0380,
小平 (Kodaira),2015-04-07,08:01～09:00,0.0382,0.0345,0.0364,
小平 (Kodaira),2015-04-07,07:01～08:00,0.0411,0.0352,0.0371,
小平 (Kodaira),2015-04-07,06:01～07:00,0.0407,0.0344,0.0368,
小平 (Kodaira),2015-04-07,05:01～06:00,0.0392,0.0337,0.0361,
小平 (Kodaira),2015-04-07,04:01～05:00,0.0387,0.0342,0.0360,
小平 (Kodaira),2015-04-07,03:01～04:00,0.0397,0.0342,0.0364,
小平 (Kodaira),2015-04-07,02:01～03:00,0.0404,0.0344,0.0367,
小平 (Kodaira),2015-04-07,01:01～02:00,0.0365,0.0316,0.0346,
小平 (Kodaira),2015-04-07,00:01～01:00,0.0349,0.0308,0.0330,
小平 (Kodaira),2015-04-06,23:01～24:00,0.0347,0.0306,0.0325,
小平 (Kodaira),2015-04-06,22:01～23:00,0.0347,0.0307,0.0322,
小平 (Kodaira),2015-04-06,21:01～22:00,0.0351,0.0308,0.0326,
小平 (Kodaira),2015-04-06,20:01～21:00,0.0349,0.0307,0.0327,
小平 (Kodaira),2015-04-06,19:01～20:00,0.0354,0.0297,0.0326,
小平 (Kodaira),2015-04-06,18:01～19:00,0.0346,0.0309,0.0326,
小平 (Kodaira),2015-04-06,17:01～18:00,0.0350,0.0312,0.0330,
小平 (Kodaira),2015-04-06,16:01～17:00,0.0350,0.0312,0.0331,
小平 (Kodaira),2015-04-06,15:01～16:00,0.0350,0.0305,0.0328,
小平 (Kodaira),2015-04-06,14:01～15:00,0.0353,0.0309,0.0328,
小平 (Kodaira),2015-04-06,13:01～14:00,0.0352,0.0313,0.0332,
小平 (Kodaira),2015-04-06,12:01～13:00,0.0347,0.0313,0.0332,
小平 (Kodaira),2015-04-06,11:01～12:00,0.0360,0.0322,0.0335,
小平 (Kodaira),2015-04-06,10:01～11:00,0.0356,0.0317,0.0334,
小平 (Kodaira),2015-04-06,09:01～10:00,0.0354,0.0318,0.0337,
小平 (Kodaira),2015-04-06,08:01～09:00,0.0355,0.0320,0.0335,
小平 (Kodaira),2015-04-06,07:01～08:00,0.0354,0.0311,0.0331,
小平 (Kodaira),2015-04-06,06:01～07:00,0.0357,0.0318,0.0340,
小平 (Kodaira),2015-04-06,05:01～06:00,0.0351,0.0320,0.0339,
小平 (Kodaira),2015-04-06,04:01～05:00,0.0357,0.0308,0.0338,
小平 (Kodaira),2015-04-06,03:01～04:00,0.0352,0.0318,0.0336,
小平 (Kodaira),2015-04-06,02:01～03:00,0.0351,0.0317,0.0332,
小平 (Kodaira),2015-04-06,01:01～02:00,0.0352,0.0313,0.0332,
小平 (Kodaira),2015-04-06,00:01～01:00,0.0362,0.0309,0.0332,
